Search for airport 
image banner adimage banner ad
image banner ad

WBKP - Pamol

Located in , Malaysia

ICAO - WBKP, IATA - PAY

Data provided by Airmate  

General information

Coordinates: N5°59'34" E117°23'47"
Elevation is 36 feet MSL.
 
Rated:
View ratings: [VIEW]


View others Airports in Sabah

Operational data

Open for public use
Current time UTC:
Current local time:
Weather at : WBKS - Sandakan ( 73 km )
METAR: WBKS 250200Z 03008KT 350V060 9999 SCT015 30/25 Q1012
TAF: TAF WBKS 242300Z 2500/2600 04008KT 9999 SCT015
View NOTAMs / SUP AIP / TFR affecting this airport [VIEW]
Communications frequencies: [VIEW]

Runways:

RWY identifierQFULength (ft)Width (ft)SurfaceLDA (ft)
1800
3600

Airport contact information

Address: Malaysia

Satellite view of WBKP